CW9665 Weather Reports


time (UTC)temp
C
wind
direction
speed
KPH
gust
KPH
rain 1hr
cm
rain 24hr
cm
rain mn
cm
humidity
%
barometer
mb
20260510190005 10 145 0.0 0.0 0.00 0.00 0.00 61 1027.0
20260510185004 10 143 4.8 4.8 0.00 0.00 0.00 59 1026.7
20260510184001 10 164 0.0 0.0 0.00 0.00 0.00 60 1026.9
20260510182959 10 139 1.6 6.4 0.00 0.00 0.00 59 1026.7
20260510181956 10 142 3.2 3.2 0.00 0.00 0.00 58 1026.9
20260510180956 10 126 1.6 1.6 0.00 0.00 0.00 59 1026.9
20260510175956 10 146 1.6 3.2 0.00 0.00 0.00 62 1026.7
20260510174954 10 142 0.0 0.0 0.00 0.00 0.00 63 1027.1
20260510173949 10 145 4.8 4.8 0.00 0.00 0.00 62 1026.7
20260510172947 10 144 0.0 0.0 0.00 0.00 0.00 64 1026.7
20260510171945 8 144 4.8 4.8 0.00 0.00 0.00 67 1026.6
20260510170945 8 135 0.0 0.0 0.00 0.00 0.00 68 1026.6
20260510165943 8 131 1.6 1.6 0.00 0.00 0.00 66 1026.6
20260510164943 8 140 3.2 3.2 0.00 0.00 0.00 70 1026.7
20260510163940 7 138 1.6 1.6 0.00 0.00 0.00 74 1026.5
20260510162937 7 138 1.6 1.6 0.00 0.00 0.00 73 1026.4
20260510161936 7 146 0.0 0.0 0.00 0.00 0.00 76 1026.2
20260510160935 6 146 0.0 0.0 0.00 0.00 0.00 78 1026.4
20260510155930 6 147 1.6 1.6 0.00 0.00 0.00 78 1026.1
20260510154930 6 148 0.0 0.0 0.00 0.00 0.00 78 1026.2
20260510153925 6 142 1.6 1.6 0.00 0.00 0.00 78 1026.4
20260510152925 6 166 0.0 1.6 0.00 0.00 0.00 78 1026.0
20260510151924 7 166 0.0 0.0 0.00 0.00 0.00 77 1026.0
20260510150924 7 170 1.6 1.6 0.00 0.00 0.00 75 1026.0
20260510145922 7 171 0.0 0.0 0.00 0.00 0.00 77 1025.7
20260510144921 7 172 3.2 3.2 0.00 0.00 0.00 77 1026.1
20260510143918 6 138 1.6 1.6 0.00 0.00 0.00 80 1025.8
20260510142918 6 133 0.0 0.0 0.00 0.00 0.00 84 1026.0
20260510141917 5 133 0.0 0.0 0.00 0.00 0.00 86 1025.8
20260510140917 5 133 0.0 0.0 0.00 0.00 0.00 86 1026.2
20260510135913 5 100 3.2 3.2 0.00 0.00 0.00 87 1026.1
20260510134912 5 133 0.0 0.0 0.00 0.00 0.00 86 1025.8
20260510133911 5 132 0.0 0.0 0.00 0.00 0.00 87 1025.8
20260510132908 5 138 0.0 0.0 0.00 0.00 0.00 87 1025.7
20260510131909 5 138 0.0 0.0 0.00 0.00 0.00 87 1025.6
20260510130908 5 131 1.6 1.6 0.00 0.00 0.00 87 1025.2
20260510125908 5 141 0.0 0.0 0.00 0.00 0.00 87 1025.2
20260510124908 4 133 0.0 0.0 0.00 0.00 0.00 87 1025.3
20260510123905 4 137 0.0 0.0 0.00 0.00 0.00 87 1025.5
20260510122904 4 130 1.6 1.6 0.00 0.00 0.00 87 1025.1
20260510121901 4 140 1.6 1.6 0.00 0.00 0.00 88 1025.2
20260510120856 4 130 1.6 1.6 0.00 0.00 0.00 88 1025.0
20260510115854 4 132 0.0 0.0 0.00 0.00 0.00 88 1024.5
20260510114853 4 128 0.0 0.0 0.00 0.00 0.00 88 1024.7
20260510113851 4 136 1.6 1.6 0.00 0.00 0.00 89 1024.6
20260510112850 4 143 1.6 1.6 0.00 0.00 0.00 89 1024.6
20260510111848 4 139 0.0 1.6 0.00 0.00 0.00 91 1024.6
20260510110845 3 195 3.2 4.8 0.00 0.00 0.00 91 1024.5
20260510105845 3 64 4.8 6.4 0.00 0.00 0.00 91 1024.5
20260510104841 3 144 3.2 3.2 0.00 0.00 0.00 91 1024.3
20260510103840 3 63 3.2 4.8 0.00 0.00 0.00 91 1024.5
20260510102838 4 137 0.0 0.0 0.00 0.00 0.00 91 1024.5
20260510101837 4 138 1.6 1.6 0.00 0.00 0.00 90 1024.3
20260510100837 5 140 1.6 1.6 0.00 0.00 0.00 88 1024.3
20260510095838 5 132 0.0 0.0 0.00 0.00 0.00 87 1024.0
20260510094832 5 113 3.2 3.2 0.00 0.00 0.00 86 1024.0
20260510093830 5 130 0.0 0.0 0.00 0.00 0.00 85 1023.7
20260510092828 5 143 1.6 1.6 0.00 0.00 0.00 85 1024.0
20260510091826 5 121 1.6 1.6 0.00 0.00 0.00 85 1024.1
20260510090825 5 63 3.2 3.2 0.00 0.00 0.00 84 1024.1
20260510085824 5 110 1.6 1.6 0.00 0.00 0.00 84 1024.1
20260510084820 5 142 0.0 0.0 0.00 0.00 0.00 82 1023.8
20260510083820 5 139 0.0 0.0 0.00 0.00 0.00 81 1024.1
20260510082818 6 136 3.2 4.8 0.00 0.00 0.00 80 1024.1
20260510081814 6 136 0.0 0.0 0.00 0.00 0.00 79 1024.0
20260510080812 6 138 0.0 0.0 0.00 0.00 0.00 78 1024.3
20260510075810 6 130 1.6 1.6 0.00 0.00 0.00 77 1024.6
20260510074810 6 147 0.0 1.6 0.00 0.00 0.00 76 1024.5
20260510073809 6 146 3.2 3.2 0.00 0.00 0.00 76 1024.5
20260510072807 6 146 0.0 0.0 0.00 0.00 0.00 75 1024.6
20260510071806 6 147 1.6 1.6 0.00 0.00 0.00 74 1023.8
20260510070802 6 41 8.0 11.3 0.00 0.00 0.00 73 1023.4
20260510065758 7 24 11.3 14.5 0.00 0.00 0.00 72 1023.2
20260510064758 7 167 6.4 9.7 0.00 0.00 0.00 70 1023.2
20260510063757 7 28 11.3 14.5 0.00 0.00 0.00 67 1022.9
20260510062756 8 48 6.4 6.4 0.00 0.00 0.00 62 1022.4
20260510061753 10 143 4.8 4.8 0.00 0.00 0.00 43 1021.8
20260510060752 10 76 3.2 4.8 0.00 0.00 0.00 39 1021.0
20260510055751 10 144 1.6 1.6 0.00 0.00 0.00 42 1020.5
20260510054749 10 180 1.6 0.0 0.00 0.00 0.00 41 1020.3
20260510053745 10 180 1.6 1.6 0.00 0.00 0.00 40 1020.3
20260510052743 11 180 0.0 0.0 0.00 0.00 0.00 40 1020.3
20260510051742 11 182 0.0 0.0 0.00 0.00 0.00 38 1020.4
20260510050741 11 134 0.0 0.0 0.00 0.00 0.00 38 1020.4
20260510045741 11 134 0.0 0.0 0.00 0.00 0.00 39 1020.4
20260510044740 12 135 0.0 0.0 0.00 0.00 0.00 37 1020.5
20260510043739 12 138 3.2 4.8 0.00 0.00 0.00 35 1020.7
20260510042734 12 146 3.2 3.2 0.00 0.00 0.00 35 1020.3
20260510041732 13 160 1.6 1.6 0.00 0.00 0.00 34 1020.4
20260510040733 13 158 0.0 0.0 0.00 0.00 0.00 32 1021.0
20260510035730 13 326 3.2 3.2 0.00 0.00 0.00 31 1021.2
20260510034728 13 174 0.0 1.6 0.00 0.00 0.00 32 1021.3
20260510033728 13 142 0.0 0.0 0.00 0.00 0.00 31 1021.2
20260510032728 13 12 6.4 11.3 0.00 0.00 0.00 32 1020.8
20260510031725 13 335 6.4 6.4 0.00 0.00 0.00 33 1020.4
20260510030720 13 189 3.2 3.2 0.00 0.00 0.00 32 1019.9
20260510025716 13 154 0.0 0.0 0.00 0.00 0.00 31 1019.3
20260510024716 14 136 1.6 1.6 0.00 0.00 0.00 29 1019.4
20260510023714 15 138 3.2 3.2 0.00 0.00 0.00 27 1018.8
20260510022713 15 138 1.6 1.6 0.00 0.00 0.00 25 1018.3
20260510021709 15 143 4.8 4.8 0.00 0.00 0.00 25 1017.9
20260510020707 16 118 4.8 4.8 0.00 0.00 0.00 24 1018.3
20260510015704 16 112 11.3 14.5 0.00 0.00 0.00 22 1017.6
20260510014701 16 324 6.4 6.4 0.00 0.00 0.00 18 1017.1
20260510013659 16 128 3.2 3.2 0.00 0.00 0.00 20 1016.5
20260510012655 16 197 1.6 3.2 0.00 0.00 0.00 20 1017.0
20260510011652 16 156 0.0 1.6 0.00 0.00 0.00 20 1016.7
20260510010649 16 187 3.2 4.8 0.00 0.00 0.00 20 1015.9
20260510005649 16 183 3.2 3.2 0.00 0.00 0.00 20 1016.2
20260510004644 17 186 3.2 3.2 0.00 0.00 0.00 20 1016.0
20260510003639 17 179 4.8 4.8 0.00 0.00 0.00 20 1016.0
20260510002635 17 183 3.2 3.2 0.00 0.00 0.00 20 1016.1
20260510001634 17 183 4.8 4.8 0.00 0.00 0.00 22 1015.9
20260510000633 17 186 4.8 4.8 0.00 0.00 0.00 24 1016.1
20260509235632 17 199 6.4 6.4 0.00 0.00 0.00 23 1016.4
20260509234631 17 175 3.2 3.2 0.00 0.00 0.00 24 1016.2
20260509233626 16 199 6.4 6.4 0.00 0.00 0.00 23 1016.5
20260509232625 17 220 6.4 9.7 0.00 0.00 0.00 24 1016.5
20260509231624 17 176 11.3 14.5 0.00 0.00 0.00 22 1016.6
20260509230625 18 278 9.7 12.9 0.00 0.00 0.00 21 1016.4
20260509225623 17 199 14.5 22.5 0.00 0.00 0.00 21 1016.2
20260509224620 17 193 8.0 9.7 0.00 0.00 0.00 21 1016.5
20260509223620 18 192 8.0 12.9 0.00 0.00 0.00 20 1016.4
20260509222620 20 59 11.3 16.1 0.00 0.00 0.00 18 1016.2
20260509221618 19 330 4.8 4.8 0.00 0.00 0.00 17 1016.5
20260509220616 20 307 8.0 11.3 0.00 0.00 0.00 16 1016.2
20260509215614 20 172 3.2 4.8 0.00 0.00 0.00 16 1016.0
20260509214614 20 185 4.8 4.8 0.00 0.00 0.00 16 1016.1
20260509213613 20 189 6.4 6.4 0.00 0.00 0.00 17 1016.4
20260509212613 20 192 6.4 6.4 0.00 0.00 0.00 18 1016.6
20260509211611 21 189 6.4 9.7 0.00 0.00 0.00 16 1016.9
20260509210610 20 204 8.0 9.7 0.00 0.00 0.00 18 1016.9
20260509205608 20 205 6.4 6.4 0.00 0.00 0.00 19 1017.1
20260509204605 20 254 8.0 11.3 0.00 0.00 0.00 18 1017.4
20260509203604 20 151 9.7 14.5 0.00 0.00 0.00 18 1017.4
20260509202602 20 193 6.4 9.7 0.00 0.00 0.00 18 1017.1
20260509201558 20 355 6.4 6.4 0.00 0.00 0.00 17 1017.1
20260509200556 20 156 3.2 3.2 0.00 0.00 0.00 16 1017.1
20260509195554 20 189 4.8 4.8 0.00 0.00 0.00 15 1017.1
20260509194549 21 197 6.4 6.4 0.00 0.00 0.00 14 1017.3
20260509193548 21 131 4.8 4.8 0.00 0.00 0.00 14 1017.5
20260509192547 22 264 9.7 14.5 0.00 0.00 0.00 13 1017.5
20260509191542 21 163 3.2 4.8 0.00 0.00 0.00 14 1017.5